Theta_e
320 318 320 321 322 323 323 329 324 323 325 319 317 317 314 315 315 314 316 315 316 318 316 317 316 314 317 318 318 319 318 322 322 319 320 327 330 335 337 337 337 338 340 340 339 340 339 339 339 339 339 336 337 339 339 339 339 339 338 338 338 339 339 339 338 338 337 336 336 337 337 336 336 336 335 332 328 327 327 323 320 318 317 312 303 301 301 309 318 321 327 329 329 331 332 332 332
319 319 321 321 322 322 325 328 326 325 325 315 314 318 314 314 316 316 319 317 317 320 318 322 322 318 321 320 319 321 319 322 320 319 325 328 331 336 337 337 338 338 340 340 339 340 339 339 339 339 339 336 336 338 339 339 339 339 338 338 338 339 339 339 339 338 338 337 337 337 337 336 336 336 335 332 329 328 326 322 319 318 316 310 302 302 303 313 324 326 328 329 328 331 332 332 332
319 320 321 322 321 322 331 327 322 325 324 316 317 320 314 314 318 317 318 317 316 318 316 317 320 318 319 321 319 320 320 323 324 323 326 329 331 335 337 335 336 339 340 340 340 340 339 339 339 339 338 335 335 337 339 339 339 338 338 337 338 339 339 339 339 338 338 337 336 336 336 336 336 335 334 331 329 328 325 322 320 318 314 308 301 303 308 317 326 328 328 328 328 331 331 331 331
319 321 320 324 324 328 344 334 325 327 321 318 318 320 320 319 320 318 317 316 315 314 314 314 318 314 315 321 317 318 322 323 326 326 327 328 331 335 336 334 335 339 340 341 341 340 340 339 338 338 338 334 333 336 337 337 338 337 338 338 337 338 338 338 338 338 337 337 336 336 336 336 336 335 333 331 329 328 325 322 320 317 312 306 301 306 313 320 327 328 328 327 328 331 331 330 330
318 321 319 324 330 329 335 326 323 324 318 320 317 318 326 323 318 317 316 315 313 312 314 316 319 314 314 322 318 320 323 319 321 325 328 329 333 334 335 335 334 339 341 341 341 341 340 339 338 337 338 336 334 335 336 335 335 336 338 338 337 337 337 337 337 337 337 337 336 336 335 335 335 334 332 330 330 328 324 322 320 315 310 303 303 311 316 320 326 328 328 328 328 330 330 330 331
318 319 318 320 321 317 321 318 317 319 318 321 318 318 323 321 317 318 317 313 312 312 313 315 319 319 319 323 319 322 322 321 324 326 328 330 333 334 336 336 335 339 339 340 341 341 341 339 338 338 338 338 336 334 335 334 333 333 335 337 337 336 336 335 336 336 336 336 336 335 335 335 335 334 332 330 330 328 324 322 319 314 307 301 306 315 320 322 325 328 328 328 328 329 329 329 328
319 319 323 321 318 319 326 323 319 321 316 315 316 316 318 319 316 316 315 312 313 311 313 317 318 319 320 318 316 321 324 326 327 328 330 331 334 335 337 337 337 339 338 340 341 341 341 340 339 338 338 338 336 335 335 334 331 330 332 335 336 336 335 334 334 335 336 335 334 334 334 335 334 333 332 331 330 327 324 322 318 312 305 300 305 315 322 324 325 327 326 326 327 327 328 327 326
319 321 325 329 329 329 331 324 321 321 314 310 312 314 316 317 314 314 314 314 313 313 317 319 316 317 317 315 317 320 320 326 328 330 331 332 334 335 337 338 338 340 340 340 340 342 341 340 340 338 338 338 336 335 335 334 331 330 331 334 336 335 333 332 333 334 334 334 334 334 334 334 334 334 332 331 330 326 324 322 317 312 304 300 304 315 323 323 324 326 326 325 325 326 327 327 327
315 317 323 331 330 329 328 320 316 317 315 314 312 314 316 314 312 313 314 314 312 314 320 318 313 314 316 317 320 316 314 324 329 330 332 333 335 335 338 340 339 339 341 342 340 341 342 341 340 339 339 338 337 336 336 334 332 331 329 332 335 333 331 332 332 333 334 333 333 334 334 334 334 334 333 331 330 326 324 321 317 313 306 301 307 319 323 323 324 325 325 324 324 326 326 327 326
315 317 323 330 328 324 320 316 317 317 315 316 313 313 316 312 311 313 314 313 313 315 318 315 314 315 316 319 319 313 313 323 329 331 332 334 335 335 338 341 340 338 340 342 341 341 341 340 339 339 339 338 338 336 336 334 333 332 329 329 333 332 331 332 332 332 333 333 333 334 334 334 335 335 333 332 330 327 324 321 318 315 309 302 305 315 319 320 322 323 324 324 324 325 324 324 324
321 322 329 334 328 320 318 318 321 322 318 316 315 315 314 311 313 314 313 312 312 315 315 313 317 319 319 319 318 312 311 321 329 331 333 335 335 335 338 340 339 338 339 340 341 341 341 341 339 339 339 338 338 337 336 334 333 333 330 327 329 331 331 332 332 333 333 333 333 334 334 335 335 334 333 332 330 328 325 322 320 318 315 307 302 305 308 312 317 320 323 322 322 322 322 322 322
322 328 338 338 327 322 323 323 320 328 328 318 315 315 311 310 313 314 315 314 313 315 315 313 315 317 320 322 316 310 311 322 329 330 333 334 335 335 337 339 338 339 339 338 340 341 340 341 340 339 339 339 339 338 336 335 334 334 331 327 328 331 331 332 334 334 334 333 334 334 334 335 335 334 333 332 331 328 325 323 321 321 319 315 309 303 301 303 307 314 318 318 319 319 319 319 319
328 331 339 326 319 322 323 321 318 324 326 320 315 312 308 310 314 315 316 316 314 316 314 310 312 314 319 320 312 309 312 325 330 332 333 332 334 335 337 337 338 340 339 338 339 340 340 340 341 340 339 339 340 339 336 335 334 334 333 328 328 331 332 333 334 334 334 333 333 334 334 334 335 334 333 332 331 328 326 324 322 322 321 319 316 310 303 300 301 305 309 311 312 313 314 314 312
329 331 335 322 313 322 323 319 318 317 318 320 317 310 308 312 314 315 315 315 315 315 311 307 310 315 316 315 314 312 312 324 332 333 333 332 334 334 337 338 337 338 337 337 338 340 341 340 340 340 339 339 339 339 337 336 335 334 334 331 328 330 333 333 334 334 333 333 333 333 333 334 334 334 333 332 330 328 326 324 323 323 322 320 318 315 309 301 299 300 302 303 305 307 308 306 304
322 326 333 328 316 319 320 317 319 319 319 320 315 312 312 311 310 313 314 314 314 310 308 307 309 313 315 315 318 313 310 324 331 333 334 333 333 335 338 339 336 335 336 338 337 339 341 340 340 339 339 339 339 339 337 336 336 335 334 333 328 329 333 333 333 333 332 332 332 332 333 334 334 334 333 332 330 329 327 324 323 323 322 320 318 316 313 306 301 299 299 299 301 301 301 299 298
316 327 334 330 319 317 317 316 319 319 320 319 312 311 314 311 308 312 310 311 314 309 310 313 309 312 315 314 314 309 312 326 329 332 335 333 333 335 338 339 336 334 336 338 337 336 338 341 340 339 339 339 339 339 338 337 335 335 335 334 330 329 331 332 332 332 332 332 331 332 333 334 334 333 332 331 329 328 327 324 323 323 323 320 317 316 314 310 305 302 300 299 299 298 298 298 298
318 334 338 327 321 320 317 316 318 320 322 319 312 312 316 314 309 310 306 307 315 313 315 315 309 311 313 312 311 309 317 326 327 331 333 332 334 334 336 337 335 336 336 337 337 335 336 339 340 339 337 337 339 338 338 337 335 334 335 335 332 329 329 330 331 331 332 332 332 331 332 333 333 333 330 329 328 327 326 325 324 324 323 320 317 315 313 311 308 305 303 302 302 302 303 303 304
331 337 330 323 324 324 322 318 316 320 321 316 314 314 316 317 313 311 308 312 317 315 316 315 311 311 311 311 311 312 319 326 326 329 331 331 332 332 333 334 334 335 335 336 336 336 336 337 338 338 336 335 337 339 338 338 336 335 335 335 334 331 330 330 330 331 331 331 332 331 332 333 332 332 329 328 327 326 326 326 325 324 323 320 317 314 312 311 309 308 308 308 308 309 310 310 311
334 331 322 327 330 322 319 318 316 316 317 317 315 313 314 315 314 311 311 317 317 315 317 316 316 315 313 313 312 314 320 325 326 327 329 329 330 330 331 332 334 334 334 335 335 335 334 335 335 335 335 333 333 335 338 339 337 336 335 336 335 334 332 331 331 331 331 331 331 331 332 332 332 331 329 328 328 326 326 326 326 325 323 320 317 314 313 312 311 311 311 312 312 313 313 313 313
323 323 321 330 329 320 315 317 318 315 315 318 316 312 313 313 312 311 314 318 317 318 318 316 317 319 319 315 312 317 320 322 324 326 328 328 330 330 330 331 332 333 333 334 333 333 332 332 332 332 334 333 331 333 336 338 338 337 336 336 335 334 334 333 332 331 332 331 330 331 331 330 331 330 329 328 328 327 326 325 325 324 322 320 317 316 314 313 313 313 313 313 314 314 313 313 313
317 319 320 322 319 318 316 316 318 315 313 318 317 313 314 312 311 312 315 317 317 319 318 316 318 319 322 317 312 317 320 321 322 323 325 326 329 330 330 331 332 333 332 331 331 331 331 331 331 332 334 335 334 335 336 337 338 338 336 336 336 334 335 335 333 332 332 331 331 330 330 330 329 330 329 328 328 327 326 325 325 323 322 319 318 316 315 314 314 314 314 314 313 313 312 312 311
315 315 315 316 315 315 315 315 316 314 312 316 317 314 313 311 312 314 315 315 317 320 318 317 316 315 320 317 312 316 319 320 320 320 322 324 326 328 329 329 330 331 332 332 331 330 331 330 330 331 333 335 335 336 338 338 338 338 337 337 336 335 335 335 333 332 332 331 331 330 330 330 329 329 329 328 328 327 326 326 324 323 322 320 318 317 315 315 315 314 314 314 313 312 311 310 309
316 315 313 315 315 314 314 314 314 313 314 317 316 313 312 313 314 314 314 314 316 315 313 314 312 307 311 314 312 316 319 319 319 318 320 322 324 327 328 328 328 328 329 330 331 331 330 330 330 329 331 333 333 335 337 338 338 338 337 335 335 336 336 335 334 333 332 331 331 330 330 330 330 331 330 329 328 327 326 325 324 322 322 321 319 318 316 315 315 314 314 313 312 311 310 308 307
320 318 314 314 313 313 314 313 313 312 315 316 313 311 313 317 315 311 313 315 315 313 306 306 305 302 308 314 313 315 317 318 318 319 320 321 322 325 327 327 327 327 327 327 327 328 328 329 329 327 328 329 331 332 335 337 338 338 336 334 333 334 336 335 334 333 331 331 331 331 331 330 330 330 330 329 328 327 325 323 323 322 321 320 319 318 317 316 315 315 314 313 312 310 308 306 304
321 318 316 315 314 315 315 314 315 313 314 313 312 313 315 315 312 311 316 315 316 315 307 306 306 307 312 317 317 312 313 316 317 318 318 319 320 321 322 323 324 324 325 325 325 326 326 326 326 325 325 326 328 329 332 334 335 336 336 335 332 331 334 334 334 334 332 331 332 331 331 331 331 330 330 330 328 326 323 321 321 321 321 320 318 318 317 317 316 314 313 312 311 309 306 304 302
316 317 318 316 315 317 315 315 318 316 315 313 313 316 315 311 310 314 318 316 317 315 316 316 314 319 319 317 315 309 311 313 314 316 317 317 317 317 317 318 319 320 320 321 321 321 322 322 323 324 324 325 326 327 329 330 331 332 334 336 334 331 332 333 334 334 332 331 333 332 331 331 331 331 331 330 329 327 324 321 320 320 320 319 318 318 317 317 315 313 313 311 309 307 303 302 301
314 318 318 316 318 318 314 315 318 316 316 314 314 317 315 310 311 316 318 317 315 318 323 319 319 327 321 315 312 308 310 311 312 314 314 315 315 315 316 316 316 316 316 316 316 316 316 317 318 319 322 324 326 326 327 328 329 330 331 333 334 333 333 332 333 333 331 332 334 332 331 331 330 330 330 330 329 329 325 322 321 320 319 318 319 318 317 317 315 313 312 310 309 306 301 299 300
314 318 317 317 322 318 314 316 316 315 316 314 314 315 314 311 313 316 318 313 312 320 328 323 322 324 317 314 313 308 308 309 311 312 313 313 314 316 316 316 315 315 315 314 314 313 312 313 314 315 317 320 324 326 327 327 326 328 331 330 332 334 334 333 333 333 332 334 334 332 332 331 330 330 330 329 329 329 325 323 322 320 320 318 319 319 317 316 314 312 310 309 307 304 300 298 298
314 316 316 320 326 320 314 316 314 314 315 315 314 314 316 314 314 317 316 311 311 318 326 326 323 319 314 314 313 309 307 308 309 309 312 313 314 316 315 316 315 314 314 313 312 311 311 312 313 315 315 316 320 324 327 327 325 328 331 330 330 333 334 334 334 333 333 334 332 331 332 330 330 330 330 330 330 329 326 323 322 321 321 319 319 318 317 316 314 311 309 307 305 302 300 298 298
315 315 317 322 326 321 314 312 312 313 314 315 314 316 320 320 317 315 312 312 316 319 323 322 320 317 314 314 313 312 307 306 308 308 311 312 313 314 314 315 314 313 313 312 311 310 311 312 314 315 316 316 318 323 327 327 326 328 330 329 330 332 333 334 333 334 333 333 331 330 331 330 331 331 330 330 329 328 326 324 322 321 320 319 319 318 317 315 313 311 308 306 303 301 300 298 298
318 313 321 325 319 323 320 313 314 313 312 313 313 316 319 320 321 315 309 312 317 320 320 317 317 316 314 313 312 313 309 306 307 308 310 311 312 313 313 313 312 312 311 309 309 310 312 313 315 316 316 318 319 322 326 327 326 326 328 328 329 330 331 332 332 333 332 331 331 331 331 330 330 330 329 330 329 327 326 324 323 321 320 319 318 317 316 314 313 310 308 306 302 300 299 298 296
325 313 323 325 316 327 328 316 316 314 312 311 312 317 318 317 319 315 308 311 314 317 317 314 315 315 313 312 311 311 309 306 306 308 310 310 311 312 312 312 312 311 309 308 309 311 313 314 317 317 317 318 320 322 326 327 325 325 327 327 328 329 330 331 331 331 330 330 331 330 330 329 329 329 328 328 328 327 326 325 323 322 320 319 318 317 315 314 313 309 307 307 304 300 298 296 294
327 316 321 325 318 324 323 315 314 314 313 312 312 317 320 318 317 314 308 310 313 316 318 315 313 313 311 310 309 309 309 307 306 306 308 309 310 311 311 311 311 310 308 308 310 313 314 315 318 318 317 319 319 322 325 326 325 325 327 327 328 329 329 330 329 329 328 328 329 329 328 328 327 326 327 327 327 327 326 325 323 321 320 318 318 316 314 313 313 309 305 306 305 300 297 294 292
327 318 319 325 322 319 319 319 314 310 313 313 313 314 316 318 316 316 314 312 314 320 322 319 313 310 309 308 308 308 308 309 308 306 307 308 309 310 311 311 310 309 308 309 311 313 315 316 318 318 318 319 320 322 324 325 325 325 325 326 327 327 327 328 328 328 328 327 328 328 327 326 325 325 326 326 326 325 325 324 323 321 319 318 317 315 313 312 311 311 306 303 303 301 297 293 292
331 324 321 324 320 316 320 323 314 310 313 314 315 315 314 315 313 314 316 315 317 319 318 315 312 310 309 308 308 307 307 308 308 306 307 308 309 309 310 311 310 309 310 311 312 314 315 315 317 318 318 319 320 322 323 323 324 324 323 324 325 326 327 327 327 326 326 326 326 326 326 325 323 324 326 325 323 324 323 323 321 319 318 317 317 314 312 311 310 310 307 301 299 298 296 294 293
331 332 331 329 323 319 322 324 316 312 313 315 316 315 314 314 313 312 314 317 318 316 313 311 310 309 309 308 307 307 307 307 306 305 307 307 309 309 309 310 309 309 311 312 312 313 314 315 316 318 318 319 321 321 321 321 321 321 321 323 324 325 326 326 326 325 325 325 324 325 325 324 324 324 325 323 323 324 322 321 320 318 318 317 317 315 312 311 310 308 305 301 297 295 294 293 293
324 328 329 327 322 321 323 322 317 312 313 319 317 314 314 313 313 312 311 316 317 315 314 311 310 309 309 309 308 308 307 306 305 305 306 307 308 308 309 310 310 309 310 312 313 313 314 314 315 317 318 318 320 320 320 320 320 318 319 322 323 323 324 324 324 324 324 323 324 324 324 324 324 324 323 322 322 323 322 320 319 317 317 317 317 315 313 311 309 307 303 300 298 295 293 292 293
322 322 321 322 322 321 320 317 316 314 313 320 320 315 314 312 312 312 311 313 314 314 314 312 312 310 309 309 309 308 307 306 305 304 304 305 306 307 309 310 310 309 310 311 312 313 313 314 315 316 317 317 318 320 320 319 319 320 320 322 322 321 320 322 322 322 322 322 322 323 323 323 323 322 321 322 322 322 321 320 318 317 317 316 315 313 311 309 306 305 302 298 297 296 294 293 293
322 324 319 321 322 321 320 317 316 315 313 320 324 318 315 313 313 313 312 312 312 311 312 312 313 312 311 310 309 308 308 309 309 305 302 303 304 306 308 309 309 309 309 309 311 313 313 313 314 315 317 316 316 318 318 318 318 320 320 320 320 319 318 319 320 321 321 321 321 321 321 321 321 319 319 320 321 321 321 320 319 318 316 314 314 311 309 308 305 303 302 300 298 296 294 293 294
321 323 319 321 322 320 321 319 316 314 312 318 324 318 314 314 314 314 312 313 313 311 311 311 311 311 311 311 310 310 309 309 309 307 303 301 302 304 306 307 308 308 308 308 310 311 310 311 313 314 315 316 315 316 316 317 317 318 318 318 319 319 318 318 319 319 320 320 320 320 320 320 319 318 318 319 319 320 319 318 318 315 312 311 312 310 307 306 304 302 302 302 300 297 293 293 295
322 321 318 319 321 321 320 320 320 318 315 316 320 320 321 322 319 318 318 316 315 312 311 311 310 310 310 310 310 310 310 309 308 308 304 301 301 303 305 307 308 308 308 308 309 310 310 310 312 314 315 315 315 315 316 317 318 317 316 315 314 315 313 314 315 315 317 319 319 318 318 318 318 318 318 318 318 317 316 314 314 311 308 308 307 306 306 304 303 302 302 301 301 299 296 294 295
325 323 319 318 320 320 319 320 320 324 326 319 317 323 331 330 323 324 327 325 324 318 315 316 314 311 311 311 310 309 310 309 308 307 305 301 301 302 304 306 307 308 308 308 309 310 309 310 313 314 314 314 314 315 315 317 318 316 316 313 310 309 308 310 315 316 316 316 317 318 316 316 318 318 317 317 315 313 310 310 310 307 304 304 303 303 304 303 303 302 302 301 301 300 299 297 296
323 323 319 317 316 317 318 319 319 327 330 317 316 326 328 325 323 326 330 330 330 324 321 321 316 314 314 313 311 309 308 308 308 307 304 302 301 302 304 306 307 307 308 308 308 309 309 310 313 313 313 313 313 313 314 315 317 316 317 317 315 314 312 312 316 318 317 315 316 316 314 315 317 318 316 313 311 308 307 307 305 302 301 301 302 302 303 303 303 302 301 301 300 300 300 299 297
327 320 318 319 317 319 320 319 320 325 325 318 321 328 325 323 323 325 326 325 325 323 323 323 318 317 318 316 313 311 309 308 308 307 305 302 301 302 303 305 307 307 307 307 308 309 309 310 311 311 313 313 312 313 313 313 315 316 316 316 317 317 317 316 315 315 315 314 315 314 312 314 316 315 313 310 309 308 306 304 301 299 300 301 301 302 302 302 302 302 301 301 300 299 300 299 298
324 315 316 319 319 323 322 322 323 322 322 323 323 321 323 327 324 322 322 323 325 327 328 325 320 320 322 321 318 313 309 307 307 307 305 302 301 302 303 305 307 307 307 307 308 309 309 309 309 310 312 313 312 313 313 313 314 315 315 314 315 313 313 315 314 313 313 313 314 313 311 313 314 313 311 309 309 306 301 298 297 297 299 300 301 301 302 302 302 301 301 301 299 297 297 297 296
316 311 316 319 320 322 323 327 327 324 325 328 325 322 323 325 326 326 322 323 329 329 327 323 320 321 323 324 322 317 312 307 306 306 303 301 301 302 303 305 307 307 307 307 307 308 309 308 307 307 309 311 312 312 312 312 311 312 312 312 313 311 310 312 310 309 310 310 312 312 309 312 313 312 311 309 305 300 296 295 295 295 296 298 299 300 300 301 300 299 298 297 295 293 293 293 293
313 317 323 323 324 325 326 327 325 327 330 327 325 324 322 324 330 330 323 324 329 327 326 325 325 328 331 329 325 321 315 309 307 305 302 300 301 301 303 305 307 307 307 307 307 307 307 307 306 305 307 309 310 311 310 310 309 310 310 311 313 312 311 311 308 307 308 309 311 310 309 311 312 312 310 307 300 295 294 294 294 294 294 295 296 296 296 296 295 294 293 292 291 291 291 291 290
316 329 330 324 327 326 326 328 326 330 331 324 320 320 320 324 329 329 324 324 325 323 326 332 335 337 340 337 329 322 314 309 307 305 303 301 300 301 303 305 307 307 307 306 307 307 306 306 306 304 305 307 308 307 307 307 307 308 309 309 311 312 313 313 312 311 311 311 311 310 309 310 311 309 307 302 295 293 293 293 293 293 293 293 293 293 292 292 292 291 291 291 291 291 290 290 290
319 330 328 325 329 327 328 329 327 329 326 318 316 319 320 322 323 324 323 323 323 320 320 326 331 333 334 332 329 323 314 308 306 305 303 302 300 301 302 305 307 306 306 306 306 306 305 305 305 304 303 304 305 305 304 305 305 306 307 308 309 311 313 314 315 315 314 313 312 310 310 311 309 307 303 297 293 292 292 292 292 292 292 292 292 292 292 292 292 292 292 291 291 291 290 290 290
319 325 326 328 330 331 336 333 323 323 323 316 314 319 323 323 323 323 320 319 321 320 319 319 320 321 320 318 320 321 315 309 306 304 303 302 300 301 302 304 306 306 306 305 305 305 305 304 304 304 303 302 303 304 303 304 304 305 305 307 309 310 312 313 314 315 314 312 311 311 311 310 309 306 300 294 292 292 292 292 292 292 292 292 292 292 292 292 292 292 291 291 290 290 289 289 289
318 322 324 327 330 334 338 335 328 326 326 320 314 319 328 328 327 325 320 320 323 324 323 318 314 314 313 311 311 314 314 310 305 302 302 301 299 300 302 304 306 306 305 305 305 304 304 304 303 303 302 301 303 303 303 303 304 304 304 305 307 309 311 313 313 313 312 311 310 310 310 309 307 304 296 292 292 291 291 291 291 292 291 291 291 291 291 291 291 290 290 289 289 288 288 288 288
318 320 323 325 328 329 326 323 324 325 327 325 319 322 327 325 324 322 319 322 325 324 321 318 318 316 313 313 312 310 310 308 304 302 301 300 299 300 302 304 305 306 305 305 304 303 303 303 303 303 302 302 302 303 303 303 304 304 303 304 306 308 310 311 311 310 310 310 309 308 308 307 305 300 293 291 291 291 291 291 291 291 291 291 291 290 290 290 289 289 289 288 288 287 287 287 286
319 319 323 322 320 327 328 318 313 316 323 326 324 325 324 321 322 320 317 320 321 319 319 320 321 317 314 318 318 314 311 307 302 301 301 299 299 299 301 303 305 305 305 304 304 303 303 302 302 302 302 302 302 302 302 302 303 303 302 304 306 308 310 310 309 309 308 308 307 307 306 304 301 296 291 291 291 290 290 290 290 290 290 290 290 290 289 289 288 288 288 288 287 286 286 286 286
321 323 324 318 315 325 330 325 322 322 326 328 325 324 323 323 324 319 318 322 322 319 319 319 318 317 317 318 317 314 310 306 303 301 300 299 298 299 300 302 304 305 305 304 304 303 302 302 302 301 301 301 301 301 301 301 302 302 302 303 306 308 309 308 307 307 307 306 305 303 302 301 297 292 291 291 290 290 290 290 290 290 290 289 289 289 288 288 288 287 287 287 286 286 286 286 285
319 323 321 320 325 327 325 326 331 330 329 330 328 324 321 321 323 320 321 330 333 327 321 319 320 323 323 321 321 320 312 306 304 302 300 299 298 298 299 301 303 304 305 305 304 303 302 301 301 301 300 301 301 301 300 300 302 303 303 304 306 308 307 306 305 305 305 304 303 300 299 297 293 291 290 290 290 290 290 289 289 289 289 289 288 288 288 287 287 287 287 286 286 285 285 285 285
315 317 316 319 325 326 324 325 327 329 330 331 331 327 322 322 325 324 322 328 334 330 325 324 328 333 334 331 330 331 323 312 305 302 300 299 297 298 299 300 302 303 304 304 304 303 302 301 300 300 300 300 300 300 300 300 301 302 302 303 304 305 304 304 304 304 304 302 301 299 296 294 292 290 290 290 290 290 289 289 289 289 289 288 288 287 287 287 287 287 286 286 286 285 285 285 285
317 318 318 319 319 321 324 323 321 327 333 331 331 329 321 321 326 326 323 324 325 327 328 329 332 334 334 332 330 329 326 318 307 301 300 298 297 297 299 300 301 302 303 303 303 303 301 300 300 300 299 299 299 299 299 300 301 302 302 303 303 302 302 302 302 302 302 300 298 296 293 291 291 290 290 290 289 289 289 289 288 288 288 288 287 287 287 287 287 286 286 286 285 285 284 285 285
319 320 320 319 319 320 323 322 320 325 329 326 328 327 321 323 324 322 326 327 324 326 325 324 330 333 329 329 328 324 321 317 308 300 299 298 296 296 298 299 300 301 302 302 302 302 301 300 300 299 299 299 298 298 299 300 301 301 302 303 304 302 300 301 301 300 299 298 295 293 291 291 291 290 290 289 289 289 289 288 288 288 288 287 287 287 286 286 286 286 285 285 285 285 284 285 285
Wind_Speed
7 5 3 3 1 2 3 5 2 2 3 2 1 0 1 1 0 1 1 2 1 2 2 1 2 2 2 1 3 5 2 2 3 2 1 2 3 6 8 4 6 11 14 12 11 11 11 11 12 12 9 8 10 11 12 13 14 14 13 13 13 13 13 14 14 15 16 16 16 16 15 16 16 16 17 18 19 20 20 20 20 19 18 18 18 19 19 20 20 19 20 18 17 17 18 18 18
6 3 3 5 4 2 1 3 2 3 4 2 2 2 2 1 1 3 4 3 2 1 1 3 3 3 3 2 3 4 1 1 2 1 0 3 5 5 8 5 7 10 13 13 12 11 11 11 11 11 9 8 9 11 11 11 13 14 13 13 13 13 13 13 14 14 15 15 15 15 15 15 16 16 17 17 19 19 20 20 20 20 18 18 18 19 19 21 22 21 21 20 18 18 18 18 17
5 2 3 4 5 4 1 3 2 1 3 1 2 3 1 1 3 4 5 5 3 2 2 2 2 2 3 2 1 1 1 1 1 1 0 4 5 5 8 7 7 8 12 14 12 11 11 11 10 10 8 7 9 10 10 10 12 13 13 13 13 13 12 12 12 13 14 14 14 14 14 14 15 16 16 17 18 19 19 19 20 20 18 18 18 19 20 21 22 22 22 20 19 19 18 17 16
5 2 1 2 3 4 3 3 1 3 2 2 2 3 2 3 4 4 4 4 2 1 2 1 1 0 1 1 0 1 0 1 1 2 1 4 4 5 8 8 7 8 12 14 12 12 11 11 10 10 8 6 8 9 9 10 11 13 14 13 12 12 12 12 12 12 13 13 13 14 14 14 15 16 16 17 18 18 18 19 20 20 18 18 18 19 19 20 21 22 22 21 20 20 18 17 16
5 4 2 2 3 2 3 3 2 3 1 3 1 2 4 4 5 4 3 3 2 1 1 1 1 1 1 1 1 1 1 0 1 2 2 4 5 4 7 10 10 10 13 14 13 13 12 12 11 11 10 8 7 8 9 10 11 12 15 14 12 11 11 12 12 12 12 12 13 13 13 13 14 15 15 16 17 17 17 18 20 19 18 17 18 19 19 20 21 23 22 22 21 19 18 17 16
7 9 8 7 4 1 3 3 2 1 3 4 2 3 4 5 5 5 2 3 2 2 3 1 1 1 1 0 1 1 2 1 1 2 3 5 6 4 6 12 12 11 14 14 14 14 14 13 12 12 11 9 8 8 9 9 10 11 13 13 12 11 11 12 12 11 12 11 12 12 13 13 13 14 15 15 16 16 17 19 20 19 18 17 18 19 20 20 21 23 22 21 20 18 18 17 16
3 4 7 8 4 1 3 3 3 2 1 3 1 3 4 5 5 4 1 1 1 0 1 2 1 3 1 1 1 2 2 2 2 3 4 5 7 6 6 12 13 12 13 14 14 14 14 13 12 12 12 11 9 8 9 9 10 10 12 12 12 11 11 12 12 11 11 11 11 11 12 12 12 13 14 15 15 16 17 19 19 18 18 17 18 19 20 20 21 23 21 20 19 18 18 18 18
3 1 1 4 2 3 4 2 3 2 0 2 2 3 3 4 5 5 3 2 2 1 1 2 0 2 0 1 1 2 2 3 3 4 5 6 8 7 7 12 13 13 13 12 14 14 14 13 12 12 11 11 9 8 8 8 9 10 10 11 11 10 11 12 12 11 10 10 10 10 10 11 11 13 13 14 15 17 18 18 18 18 18 17 18 19 20 20 21 22 21 20 19 18 18 19 19
6 3 0 4 3 3 3 1 1 2 2 3 3 4 3 3 4 4 4 2 1 2 2 3 1 1 1 1 0 2 2 4 4 5 6 7 9 9 8 11 11 12 13 11 12 14 13 12 12 11 10 10 9 8 7 7 7 8 9 10 11 10 12 12 11 10 10 9 9 10 10 10 11 13 13 13 15 16 17 17 18 17 17 17 18 20 20 20 21 22 21 19 19 19 19 19 18
6 4 2 3 3 3 2 0 1 1 3 4 3 5 3 4 3 2 4 2 1 2 2 2 1 0 2 2 1 1 4 5 5 6 6 8 10 10 10 11 9 10 12 12 11 12 12 12 12 12 11 10 9 8 7 6 6 6 6 9 10 11 12 11 11 10 9 9 9 9 9 10 11 12 12 13 15 16 16 17 17 17 17 17 18 19 19 20 21 21 20 19 18 18 18 17 17
4 4 2 4 3 2 2 3 3 2 4 4 3 5 4 5 4 3 1 1 0 1 1 2 1 2 2 1 1 2 5 7 7 8 6 8 11 11 13 12 11 10 10 12 12 11 14 14 11 12 13 12 10 10 8 7 6 6 6 8 10 12 12 11 11 10 9 9 9 9 9 10 11 12 12 12 14 15 15 15 16 16 16 16 17 17 18 18 19 19 19 18 18 17 16 16 15
2 2 3 4 2 2 2 3 3 4 5 3 1 2 3 5 4 3 3 2 2 0 3 4 2 2 2 2 1 2 5 8 9 9 7 8 11 12 14 14 13 12 10 11 13 11 14 14 11 12 14 13 12 11 11 9 7 7 6 7 10 12 13 12 11 10 9 9 9 9 9 9 11 11 11 12 13 14 14 14 15 15 16 16 16 17 17 17 17 18 18 17 16 15 15 15 14
3 2 4 3 2 2 2 3 2 3 4 3 3 1 3 5 3 5 5 3 3 3 4 4 2 2 2 2 1 1 5 9 10 10 8 8 11 12 13 15 13 13 11 11 14 12 12 13 12 14 15 15 13 13 13 11 10 8 8 7 9 12 13 12 10 9 8 8 8 9 9 9 10 10 10 12 13 13 13 13 14 15 15 15 16 16 16 16 16 16 16 16 15 15 15 15 15
3 3 5 3 1 2 3 2 1 2 3 4 2 1 2 2 3 4 6 3 4 4 1 2 4 2 1 2 1 2 6 10 12 11 9 8 10 12 12 14 14 12 11 11 15 15 13 12 11 11 14 16 15 14 14 13 12 10 9 8 9 12 12 11 10 9 8 8 8 8 9 9 10 9 10 12 12 13 12 13 14 14 14 15 15 15 15 16 16 16 16 16 16 17 17 17 17
3 2 4 4 2 1 3 1 2 4 4 3 2 3 3 1 2 3 5 5 4 3 0 1 3 2 2 3 2 2 8 12 13 12 12 10 10 13 12 15 16 13 11 11 14 15 13 12 11 10 11 15 15 14 14 13 13 12 11 9 10 12 12 11 10 9 8 8 8 9 10 10 10 9 10 12 11 11 11 12 13 13 13 14 15 15 15 15 16 16 16 16 17 17 18 19 19
3 4 5 3 2 1 3 2 2 3 4 4 1 1 3 1 2 3 3 2 1 1 1 2 2 1 2 4 2 1 11 14 13 14 14 12 11 13 12 14 15 14 13 12 13 15 14 13 13 13 12 12 13 12 13 14 14 13 13 11 11 13 12 11 10 9 8 8 8 9 10 10 10 10 11 12 10 10 10 10 12 12 13 14 15 15 15 16 16 16 16 17 17 18 18 19 19
3 4 5 2 3 3 4 4 4 4 4 4 2 2 5 1 1 2 1 2 3 0 2 2 2 2 3 2 1 4 12 14 14 15 15 15 14 15 14 14 15 15 16 14 14 15 15 15 15 15 13 11 12 13 14 15 16 15 14 13 12 13 13 12 11 10 9 9 8 9 10 10 11 10 11 12 10 10 10 10 10 12 12 14 15 16 16 16 17 17 18 18 18 18 19 20 20
4 3 4 2 3 4 6 8 7 4 2 4 4 3 6 3 2 1 1 2 2 1 3 2 3 4 5 3 3 7 13 15 15 16 16 17 15 16 15 16 17 15 16 15 14 14 14 16 16 15 15 14 13 14 14 14 16 17 15 14 13 13 13 13 12 11 10 10 9 9 10 11 11 10 10 11 9 11 11 9 9 10 12 14 15 17 18 18 18 19 19 19 19 19 19 21 21
4 3 3 3 5 5 5 8 6 3 2 4 3 2 4 4 4 3 2 2 3 1 4 2 4 5 4 4 5 9 14 15 16 17 17 18 17 16 16 17 18 17 17 16 15 14 12 13 14 14 14 16 15 14 14 13 16 17 16 15 14 14 14 13 12 11 11 11 10 10 10 10 11 10 10 11 11 11 10 9 8 9 11 14 16 18 19 19 20 20 20 20 20 19 20 21 20
2 3 2 4 6 4 4 6 6 4 2 5 4 1 1 3 3 2 3 1 1 4 5 2 5 8 6 5 7 12 15 14 16 18 17 19 19 18 16 18 20 20 19 18 15 13 12 10 10 11 11 13 15 14 15 15 15 17 17 15 14 14 14 14 13 12 12 12 11 11 11 10 11 11 10 11 12 11 11 10 9 10 12 14 15 17 18 19 20 20 20 20 19 20 20 20 19
2 3 3 4 3 1 2 6 5 3 2 5 5 3 1 3 2 2 5 3 3 6 7 7 9 9 7 6 8 14 15 14 15 17 18 18 19 20 19 18 19 19 19 18 17 14 12 12 11 11 10 11 12 12 16 18 17 18 18 15 15 14 14 14 13 13 13 12 12 11 12 11 11 12 11 11 12 11 11 12 11 12 14 14 15 16 18 18 19 19 19 19 20 20 20 20 19
3 1 3 4 3 2 1 4 4 3 3 4 6 4 3 2 1 3 7 5 6 5 6 8 9 6 7 8 11 13 14 14 15 16 18 19 19 21 21 20 18 17 17 17 18 17 15 14 14 14 12 12 12 11 14 19 19 19 18 16 15 15 15 15 13 14 13 12 13 13 13 13 12 13 12 12 13 12 12 14 14 15 15 15 14 16 18 18 18 18 18 19 20 20 20 20 20
2 1 1 3 2 1 1 1 2 4 5 5 5 3 2 3 2 2 6 9 7 4 4 5 6 6 7 11 13 12 12 15 17 19 20 20 20 21 22 22 20 19 18 17 18 18 17 16 16 17 16 14 14 13 12 16 18 18 18 17 16 16 16 16 14 15 14 13 14 13 12 13 13 15 16 14 13 13 15 16 17 17 16 15 15 16 18 17 17 18 18 19 19 19 20 21 21
4 1 1 2 2 1 1 1 2 3 5 5 2 2 3 4 3 1 4 12 7 4 3 4 6 6 8 10 11 12 14 16 18 20 20 20 20 20 21 21 21 20 20 20 19 19 19 19 19 20 21 19 17 16 14 14 15 17 19 19 18 17 16 16 17 17 15 13 14 12 11 11 11 14 17 17 16 18 20 21 20 19 17 17 16 16 17 17 17 17 18 19 19 20 20 22 23
5 2 1 1 1 3 1 3 3 2 2 2 2 2 3 4 2 1 9 12 6 3 1 1 2 5 8 9 10 11 12 15 17 17 18 18 17 18 19 19 20 20 20 20 20 20 20 20 21 21 22 22 19 19 18 16 15 16 17 19 21 20 19 18 18 19 16 13 13 12 12 12 11 13 17 17 17 20 22 23 23 21 20 19 19 18 17 17 17 18 19 19 20 20 21 23 24
1 3 2 2 1 4 0 3 3 0 1 2 3 2 3 2 1 4 10 8 3 2 3 1 3 5 7 7 8 10 10 13 15 16 17 17 17 17 18 18 18 18 19 18 18 19 19 19 20 21 22 22 21 20 20 19 18 17 16 17 20 22 23 20 19 19 17 14 16 16 14 13 12 14 16 13 13 16 20 22 23 23 22 21 20 19 18 17 18 19 19 20 21 21 23 24 25
2 3 2 2 1 3 1 2 1 1 2 3 4 4 3 2 1 5 5 2 1 4 2 1 3 6 7 5 6 9 10 12 15 15 15 16 18 19 19 19 18 17 17 17 16 17 18 19 20 21 22 22 22 22 21 20 20 19 19 19 19 22 25 21 22 22 19 19 22 20 16 14 13 14 15 13 13 16 20 22 22 23 23 22 19 18 18 17 19 19 19 20 20 22 24 25 26
2 3 2 3 5 3 2 2 2 1 2 4 4 2 3 3 2 7 3 2 1 3 4 4 4 5 4 4 4 7 9 11 14 15 17 19 21 22 21 20 19 18 17 16 15 15 15 16 17 19 20 22 22 22 22 21 19 18 20 23 21 23 25 23 25 25 21 22 23 19 16 15 15 15 15 14 15 17 21 22 21 21 21 20 18 18 20 19 20 21 20 21 21 23 25 26 26
2 3 2 5 8 4 3 2 3 1 1 4 3 2 4 2 8 9 2 0 1 2 6 5 5 4 3 4 4 5 8 10 13 17 20 21 21 22 21 20 18 18 17 15 15 14 12 11 11 12 15 21 22 22 21 21 19 18 19 20 20 23 26 25 26 25 23 23 19 16 16 15 16 17 16 16 17 18 21 24 23 22 21 20 19 19 20 20 21 22 22 22 23 24 26 26 26
1 3 2 3 7 4 4 2 1 1 2 1 1 3 6 7 12 8 1 2 3 2 8 6 5 4 3 5 4 5 8 11 15 19 20 19 19 20 20 20 18 17 16 15 14 12 10 8 8 7 10 17 20 20 21 21 20 19 18 18 21 24 26 25 25 25 24 22 18 16 17 18 18 17 17 19 20 21 23 24 23 23 22 21 21 21 21 22 22 23 23 24 25 25 26 26 25
1 2 2 2 2 4 6 1 2 3 1 1 3 4 6 8 11 7 2 3 5 6 9 6 5 5 5 5 5 6 8 13 17 18 20 20 19 19 19 19 18 17 16 15 14 11 9 7 7 8 10 14 18 19 20 22 20 18 18 19 22 23 22 23 23 23 21 21 21 19 19 19 17 17 18 19 19 21 23 23 22 23 23 23 23 23 23 24 23 23 23 24 26 26 27 26 26
3 1 2 3 1 5 8 2 3 3 1 2 3 4 7 8 9 5 2 3 5 8 9 6 6 6 6 5 6 5 6 13 17 19 22 21 21 20 19 19 17 16 15 14 12 10 9 9 9 10 11 14 17 19 20 21 20 21 20 19 20 20 20 18 18 19 20 22 22 20 19 17 16 17 18 18 17 20 21 21 24 25 25 25 25 25 25 24 23 24 23 22 24 27 27 27 27
4 1 2 1 2 3 6 2 2 1 1 0 2 3 5 6 6 5 2 3 4 6 9 8 7 7 6 5 5 5 5 8 13 20 24 22 22 20 19 18 16 15 13 12 11 11 11 10 11 11 12 14 16 19 21 21 20 22 22 20 17 16 17 14 14 17 18 21 21 19 18 16 15 15 17 17 16 18 19 20 24 26 27 27 26 26 26 25 24 25 25 21 21 26 28 29 28
3 2 1 3 3 2 3 4 2 2 2 2 2 3 8 8 6 5 2 3 4 6 10 10 8 6 6 5 6 6 6 6 10 19 24 23 23 21 19 18 16 14 12 12 12 13 13 12 13 13 13 15 17 19 22 23 23 23 22 21 18 17 17 15 17 20 19 19 18 18 18 17 14 13 16 17 15 17 18 20 24 27 28 28 27 27 27 26 24 23 25 24 22 25 28 29 29
3 2 1 2 2 2 3 4 2 2 2 2 3 5 12 14 12 10 5 4 5 9 10 8 8 7 7 7 8 8 7 8 12 17 22 24 24 23 21 19 16 15 14 14 14 14 14 15 15 16 16 17 19 21 23 24 24 23 21 21 21 20 20 20 21 22 20 19 17 18 19 17 14 14 18 17 15 16 17 20 25 28 28 28 27 27 27 26 25 23 24 27 26 26 27 29 29
7 6 4 4 3 3 5 5 4 2 1 4 7 8 11 13 13 13 7 4 6 10 9 8 8 7 8 8 9 10 9 11 12 15 19 23 26 25 23 22 19 18 17 17 17 17 16 17 17 19 19 19 21 22 23 23 23 23 23 23 23 23 23 23 23 22 20 18 17 19 20 18 14 16 18 15 15 17 18 22 26 28 28 27 26 26 27 26 25 25 25 29 30 29 28 27 27
7 5 4 4 3 4 5 4 5 2 2 6 9 9 10 11 13 14 8 3 5 11 11 11 11 9 9 10 11 11 11 9 8 13 19 23 26 26 25 24 22 20 19 20 20 20 18 18 19 21 21 22 23 23 22 23 24 25 25 25 25 23 24 25 24 21 20 19 19 21 21 19 17 17 17 15 16 18 20 24 28 29 28 26 25 26 26 26 26 26 28 29 30 31 30 27 25
5 5 3 2 3 5 7 3 4 1 3 6 6 7 11 11 12 14 9 5 9 13 13 15 14 11 10 12 14 12 8 4 5 11 18 22 25 27 27 26 24 21 20 21 22 22 21 20 20 21 22 23 24 23 23 25 26 25 24 24 25 24 24 24 24 22 20 20 21 21 20 20 19 17 16 15 18 20 22 26 27 26 26 26 26 26 26 27 27 27 30 30 29 30 29 28 25
4 3 2 3 3 4 6 3 4 1 3 5 5 7 11 11 11 13 13 12 12 12 13 15 14 11 11 12 12 10 7 6 6 9 15 21 24 26 27 26 25 23 20 21 23 22 22 22 22 22 23 25 25 25 26 26 25 23 22 23 25 24 24 24 24 23 21 22 23 22 20 20 19 17 15 16 19 21 23 25 25 24 25 26 25 26 27 27 28 28 29 29 29 29 27 26 21
2 3 3 3 2 1 3 4 4 0 2 3 5 7 10 9 9 13 15 13 11 12 13 14 11 12 15 12 8 8 10 11 10 7 10 17 21 25 26 26 25 23 21 22 24 23 23 24 24 24 25 26 26 26 26 26 24 22 22 24 25 25 24 23 23 23 23 24 24 23 22 21 19 16 16 18 21 23 24 24 23 23 25 25 24 26 28 29 29 29 28 26 28 28 26 22 13
4 5 6 4 4 5 5 3 4 2 2 3 4 7 8 6 7 10 8 5 8 11 11 12 13 14 14 9 7 9 11 11 11 9 8 14 22 26 27 25 25 25 25 25 25 25 25 25 25 25 26 27 27 27 27 25 24 24 25 26 24 23 23 23 23 24 24 25 24 24 23 23 19 16 17 20 21 22 23 22 21 22 24 24 24 25 28 29 29 29 26 24 23 22 24 21 11
4 5 9 9 7 7 5 3 5 4 3 3 4 5 6 2 4 8 5 4 7 7 6 11 15 12 8 8 10 10 9 9 10 10 10 15 23 26 24 24 26 26 27 27 27 27 26 26 26 25 27 28 28 28 28 27 27 27 28 27 24 23 23 23 24 25 26 26 26 25 24 24 21 17 19 21 20 22 23 21 21 21 23 24 25 26 28 29 29 27 24 22 19 18 21 21 15
2 4 7 9 6 5 5 1 1 1 4 3 3 2 7 4 4 8 6 6 10 8 7 12 13 9 6 8 9 8 8 8 7 8 10 14 20 23 23 26 28 27 27 26 27 27 26 27 28 27 27 29 30 30 29 28 29 29 28 28 27 26 25 25 25 26 27 26 26 25 25 25 21 19 20 21 21 22 22 21 21 22 23 25 26 27 28 28 27 25 22 20 17 15 18 19 17
3 4 4 6 7 6 5 4 3 3 3 3 2 2 5 8 5 6 5 6 10 11 12 15 11 7 7 8 9 8 8 8 7 8 9 12 19 24 26 27 27 26 26 27 28 29 28 28 29 29 28 28 30 30 29 28 28 29 29 29 28 27 27 27 27 27 27 27 26 26 26 24 21 20 21 22 22 22 21 22 22 23 24 26 26 26 26 26 25 24 22 19 16 15 15 14 16
4 2 5 6 6 5 4 5 2 1 3 4 2 3 3 8 5 3 2 4 8 10 14 16 11 7 7 8 8 7 7 7 8 8 9 12 19 25 26 25 26 26 27 28 30 30 30 29 29 30 29 29 30 30 30 29 28 29 29 28 27 26 26 28 29 28 28 27 26 26 26 24 21 21 23 23 22 22 23 24 24 24 25 26 26 25 25 24 23 22 21 19 16 15 13 13 15
3 5 6 5 5 4 5 4 3 3 2 5 5 6 3 7 4 2 1 2 7 10 12 12 9 7 8 8 7 6 5 5 6 7 9 14 19 24 24 24 25 26 28 30 30 30 30 30 30 30 30 31 30 30 30 30 29 29 29 28 28 27 27 28 29 28 28 27 27 27 26 25 23 23 23 23 23 25 25 25 25 25 25 25 25 25 25 24 23 21 20 18 17 16 16 15 15
6 6 6 6 5 4 3 2 3 2 5 5 6 9 6 6 3 4 3 4 6 8 8 9 7 7 8 7 5 5 4 4 5 5 6 11 17 20 23 24 26 26 27 29 30 30 30 30 30 29 30 32 32 31 31 31 30 30 29 29 29 30 30 31 31 30 29 28 28 28 27 25 24 25 25 26 27 27 27 26 26 25 25 26 26 26 25 25 24 22 21 20 18 17 18 18 17
5 4 4 4 3 4 3 4 4 1 5 3 2 4 5 7 6 3 5 6 6 7 8 9 8 8 7 5 4 4 4 4 4 4 5 7 11 16 21 23 25 26 27 29 30 31 31 31 31 29 30 32 32 32 32 32 31 30 30 30 31 32 33 34 34 34 32 32 31 29 27 26 27 27 28 29 30 30 29 28 27 27 27 27 27 26 26 25 24 24 23 22 21 20 20 20 19
2 4 5 4 2 3 2 3 1 3 6 3 1 1 4 9 8 7 9 12 10 9 9 10 9 9 8 5 5 3 2 3 4 4 5 6 8 14 20 22 24 26 28 30 31 31 32 32 32 31 30 32 32 32 32 31 31 31 32 32 32 32 33 35 36 36 34 33 32 30 28 29 30 31 32 33 33 32 31 30 29 28 28 28 27 27 26 26 25 25 24 24 23 23 22 21 20
5 5 6 4 2 1 2 3 2 4 6 3 1 0 3 5 5 10 16 16 12 8 10 11 10 11 10 6 4 3 3 4 5 5 6 7 9 15 19 22 25 26 28 31 32 32 33 32 33 32 30 31 32 32 32 32 32 32 32 31 32 32 34 36 36 35 33 32 32 31 29 30 33 34 35 36 35 33 31 30 30 29 29 28 28 27 27 26 26 25 25 25 24 23 22 22 21
5 4 5 5 5 5 4 4 4 5 4 3 2 1 3 3 3 8 11 10 8 7 9 8 8 10 9 6 5 4 5 6 5 6 7 8 11 16 20 22 25 26 28 30 32 33 33 32 33 33 31 32 33 33 33 33 33 32 31 31 31 33 35 36 35 32 30 30 32 32 31 32 34 36 37 37 35 34 32 31 30 30 29 29 29 28 28 27 27 26 26 25 25 23 22 22 20
3 3 4 3 5 5 2 3 5 2 3 3 2 4 5 4 6 8 8 8 8 7 6 5 8 10 6 7 7 6 7 7 6 7 7 8 12 16 19 22 24 26 28 30 32 33 34 33 33 34 33 33 34 34 34 34 34 33 32 32 32 34 36 37 34 31 28 29 31 32 33 35 36 37 38 37 35 34 33 32 31 30 30 30 29 29 28 27 27 26 25 25 24 23 22 20 19
2 3 4 4 4 6 3 2 1 3 2 4 2 5 6 4 8 9 7 10 11 8 6 7 10 7 5 8 9 7 7 6 6 7 6 7 11 16 19 22 24 26 28 30 31 33 34 34 34 34 33 33 34 34 34 34 34 34 34 34 34 36 38 35 31 29 28 29 31 33 34 36 38 39 38 37 35 34 33 32 32 31 31 30 29 28 27 26 25 25 24 23 23 22 20 18 17
5 3 6 3 2 3 3 1 2 3 3 4 1 5 6 4 6 4 1 6 11 10 10 10 10 7 6 10 11 9 7 5 5 6 5 6 10 15 19 22 24 27 28 30 31 32 33 33 34 34 34 34 35 34 34 34 34 35 35 35 36 37 37 33 29 27 27 29 32 35 36 38 39 39 38 37 36 34 33 32 32 31 31 30 29 28 27 26 25 24 23 21 21 20 19 18 16
4 4 4 4 2 2 2 2 2 1 3 4 3 4 5 6 7 3 3 6 9 10 9 8 9 8 8 9 10 9 6 4 5 6 6 7 11 16 19 21 24 26 27 28 29 30 30 31 32 33 33 34 34 33 33 34 35 35 36 36 37 37 35 31 29 27 27 29 33 36 38 39 40 40 38 37 36 35 34 33 32 32 31 30 29 28 26 25 24 22 21 20 19 19 18 17 16
3 1 2 2 2 4 3 3 3 3 2 3 3 5 7 9 7 6 9 11 10 8 6 7 9 9 7 7 8 7 5 5 6 6 7 7 10 16 20 22 24 25 26 27 28 28 29 30 31 31 31 32 32 33 33 34 35 35 36 36 36 36 34 31 29 28 28 30 34 37 39 40 41 40 39 38 37 36 35 34 33 32 31 30 29 28 26 25 23 22 21 20 20 19 18 17 16
3 3 5 3 1 2 1 1 2 4 3 2 2 6 12 8 5 8 11 11 11 9 8 9 9 7 6 6 6 5 5 6 6 6 7 7 10 15 19 21 23 24 25 26 28 29 29 29 30 31 31 32 32 33 34 35 35 36 36 36 36 35 33 31 29 28 28 31 35 38 40 41 41 40 39 38 37 36 35 34 33 32 31 30 29 27 26 24 23 23 22 21 20 20 19 16 14
7 7 8 8 6 4 2 2 1 2 3 3 3 7 14 7 5 7 8 9 10 10 9 10 8 6 6 6 6 6 6 6 6 6 6 6 9 14 18 20 22 23 24 26 28 29 29 29 30 31 32 33 33 34 34 35 35 36 37 37 36 34 32 31 29 29 29 32 36 39 41 41 41 40 39 38 37 36 35 34 33 32 31 30 28 27 25 25 24 23 23 22 22 21 19 16 15
Wind_Direction
345 351 15 50 75 154 36 47 89 334 75 87 298 156 230 209 120 192 249 279 273 253 209 128 140 129 112 138 162 153 143 161 162 137 214 191 122 164 180 176 172 176 175 171 167 163 158 152 142 139 140 143 139 131 129 128 124 120 117 116 116 113 108 106 106 104 104 101 97 95 91 90 88 85 81 77 71 68 66 62 59 57 55 53 52 52 56 66 70 74 78 79 79 81 82 82 80
353 7 63 76 51 116 222 47 101 334 50 90 252 183 259 312 347 195 201 233 208 230 66 114 118 89 72 81 118 115 108 239 186 174 240 143 124 159 178 171 160 169 176 172 165 165 161 155 148 142 138 144 142 136 132 129 128 126 122 121 119 115 111 107 106 106 104 102 99 96 91 91 90 87 82 76 70 67 65 63 61 59 57 55 55 55 58 66 69 72 76 78 80 82 83 83 81
4 21 87 90 39 51 90 39 86 38 68 112 264 230 258 148 217 221 208 216 184 129 45 99 117 89 64 48 78 78 82 275 206 196 213 153 137 163 177 174 156 161 172 169 166 167 163 158 154 142 134 147 144 137 135 130 129 126 121 122 122 117 114 109 106 104 102 100 98 96 92 90 91 88 82 76 70 67 65 63 62 60 57 56 57 59 62 68 70 72 74 78 81 83 84 84 82
9 23 97 132 48 37 60 40 106 120 106 194 265 244 221 181 203 228 233 227 198 69 27 90 103 95 81 71 152 73 169 278 241 183 163 158 141 166 183 182 165 158 167 167 170 170 166 163 158 145 138 147 145 136 136 135 132 129 122 121 123 119 116 112 109 105 100 99 97 95 93 92 90 87 82 76 71 67 64 63 62 61 59 58 60 64 66 70 72 73 75 80 83 84 86 85 82
45 56 75 120 84 49 89 74 98 102 168 182 151 245 227 200 180 192 250 274 251 228 168 122 84 263 84 110 153 140 199 226 249 205 171 153 139 158 182 181 171 162 167 170 173 174 172 168 162 153 143 141 146 141 138 137 133 133 131 126 123 119 117 113 109 106 102 100 98 96 94 93 89 85 82 78 74 68 66 64 63 62 63 63 65 68 69 72 75 76 78 82 85 88 89 89 85
77 71 66 75 87 140 115 87 111 145 219 170 138 247 227 199 177 169 256 313 282 218 183 187 165 164 81 309 209 183 194 133 180 202 175 159 154 160 169 171 169 166 170 172 175 177 177 172 166 157 147 148 152 147 143 137 130 134 138 132 126 122 119 115 111 108 106 103 100 99 98 95 91 87 84 83 77 71 69 66 64 65 67 68 70 71 72 73 76 79 80 84 88 90 90 88 85
113 67 50 70 64 34 98 119 174 192 210 169 173 240 223 206 183 144 161 284 203 223 180 222 170 126 110 285 229 217 209 171 167 178 169 165 164 161 163 163 163 167 173 178 178 177 182 175 169 164 152 153 155 151 146 137 131 131 138 136 132 130 125 120 116 113 109 105 101 98 98 96 94 92 89 86 79 73 71 67 66 67 70 73 74 75 75 75 77 80 80 84 88 87 87 87 85
84 46 7 80 43 21 88 121 185 196 40 232 244 239 238 204 176 139 158 202 187 221 216 226 194 129 204 44 153 210 196 184 171 169 168 168 167 163 166 161 161 169 175 183 179 175 183 175 173 173 158 153 152 150 146 136 132 130 138 137 132 135 131 124 120 116 111 107 103 99 99 99 98 97 93 87 80 75 73 70 69 70 74 76 77 78 76 77 78 80 81 84 86 87 90 91 90
52 44 80 81 78 36 55 70 190 235 268 265 251 246 262 185 167 136 163 240 261 187 212 215 189 175 201 87 238 247 198 180 165 167 167 164 168 166 167 163 163 171 172 181 184 177 178 177 179 178 163 158 150 144 145 138 135 132 140 142 136 137 134 128 124 119 115 114 109 106 104 104 103 99 96 89 81 78 76 73 74 74 76 79 80 79 78 79 79 80 82 84 89 91 92 92 90
34 27 125 79 82 52 26 218 231 253 250 257 254 240 215 169 161 115 153 210 228 154 214 208 127 197 157 158 251 244 171 169 168 172 168 166 167 166 167 166 164 167 172 178 188 184 176 180 183 180 172 163 156 150 149 148 146 141 147 150 147 143 138 132 128 126 123 123 117 114 111 110 109 104 100 93 84 80 79 76 77 78 78 80 81 81 81 81 82 82 82 85 91 92 91 89 88
32 1 94 77 76 103 178 204 253 271 272 291 273 239 196 166 137 96 116 181 197 130 199 163 145 169 138 242 250 146 158 163 173 171 161 165 167 168 167 165 163 169 183 180 183 190 184 185 183 183 181 169 165 160 157 161 160 158 158 160 156 150 144 139 136 136 133 130 124 121 119 115 113 108 104 96 88 83 81 80 79 80 79 80 80 81 82 83 86 85 84 89 93 91 90 88 86
75 343 61 85 129 173 195 172 244 284 309 321 207 247 178 150 130 152 169 173 171 163 233 189 178 152 121 295 238 153 160 164 170 165 156 165 168 169 169 166 169 178 194 185 181 193 190 190 187 184 182 174 174 168 164 167 168 172 170 168 163 156 150 147 146 143 140 132 127 127 126 121 116 112 109 99 90 86 84 82 81 82 81 81 80 80 81 83 85 85 87 92 94 91 89 87 84
114 151 90 106 159 149 150 145 253 312 321 272 199 244 139 149 178 192 161 139 148 154 243 203 167 117 154 261 232 180 172 166 162 158 160 168 167 165 169 168 172 183 193 187 181 191 192 193 195 188 183 181 185 176 170 170 173 182 175 170 168 164 156 153 154 149 145 137 133 133 129 126 123 119 112 101 93 91 89 87 84 84 83 82 81 81 82 83 85 87 90 92 91 89 86 83 80
130 151 110 120 97 124 147 129 227 188 247 257 215 158 157 186 209 178 144 156 200 177 238 195 159 147 201 233 257 246 179 168 157 153 160 167 165 159 166 169 174 185 189 184 180 191 192 192 202 197 185 185 192 180 176 176 172 184 182 171 170 171 165 159 159 154 150 144 141 139 133 134 133 125 114 104 98 93 90 92 90 86 84 83 83 84 85 87 89 90 91 90 89 87 85 83 81
126 126 89 106 64 104 170 155 161 162 228 225 158 153 155 251 150 147 165 179 223 206 85 181 176 186 197 177 226 244 169 166 155 154 160 164 162 157 165 167 176 185 183 184 181 192 193 193 205 200 191 193 199 184 179 182 173 184 188 177 171 174 175 168 166 160 153 150 148 142 140 142 139 131 119 108 102 95 91 94 94 89 86 85 86 86 88 90 92 92 91 90 89 88 87 85 84
116 114 69 90 131 194 184 172 124 140 245 210 187 173 141 275 142 154 223 171 183 241 17 195 188 194 177 171 232 186 155 160 154 159 159 157 162 165 169 164 175 181 177 190 189 192 192 196 199 191 197 198 200 191 185 189 180 185 190 185 178 177 182 178 175 170 160 155 153 148 147 147 143 140 129 116 109 102 95 96 96 93 89 88 89 90 92 93 94 93 91 89 89 88 88 87 86
68 79 71 92 160 199 187 172 172 168 243 233 260 212 144 263 251 176 248 91 128 189 327 235 218 205 197 189 201 154 157 158 156 163 159 157 164 169 174 165 173 178 175 189 195 196 194 200 200 189 203 204 196 195 194 195 186 185 189 190 187 183 186 187 185 180 171 163 158 154 154 153 147 148 138 125 118 109 103 101 97 94 94 94 94 95 95 96 95 94 93 91 91 90 90 88 86
58 75 102 154 175 201 188 176 193 171 192 204 209 193 148 179 224 167 172 33 33 298 293 276 288 252 230 233 186 166 165 162 164 170 162 163 168 167 171 168 172 174 173 181 185 191 191 197 204 200 208 210 204 197 193 201 193 187 188 192 194 192 190 191 190 185 180 173 166 164 161 158 155 157 147 135 125 117 117 113 102 97 98 100 100 100 100 99 99 97 97 95 94 93 90 88 85
87 106 115 205 194 205 197 171 185 168 111 155 164 180 159 182 173 139 201 300 3 262 267 312 299 265 227 212 191 173 168 168 175 179 170 170 176 171 169 173 178 177 175 178 176 180 181 185 197 202 207 215 218 206 197 205 201 193 190 192 195 198 197 196 194 187 185 181 175 171 168 165 161 161 151 143 137 128 129 128 116 109 105 106 106 106 106 105 105 103 101 100 97 94 89 87 84
138 111 122 235 210 216 219 180 189 201 137 131 151 151 172 211 165 150 189 219 359 221 236 224 246 248 216 193 173 168 170 177 184 186 183 178 183 183 175 175 183 186 184 186 187 188 192 191 196 200 205 213 215 210 207 209 204 197 193 194 197 200 204 202 196 190 187 183 178 175 173 172 164 162 157 153 151 141 140 139 128 122 115 113 113 111 111 110 109 107 104 102 97 93 88 85 83
128 106 168 226 194 151 213 198 200 201 155 136 144 121 181 227 173 163 154 160 261 239 229 213 226 229 203 189 169 170 176 183 191 193 191 186 188 192 192 186 186 188 188 194 202 205 207 205 208 208 204 202 203 211 213 205 198 197 195 198 203 201 203 205 198 194 192 183 180 179 176 173 168 167 164 163 161 152 152 149 138 133 125 120 119 115 114 113 111 108 105 100 95 91 88 85 82
82 71 188 193 158 90 208 210 193 161 116 104 125 142 182 166 154 168 155 189 238 227 221 216 226 216 187 183 171 174 182 187 195 197 195 193 191 193 199 201 199 198 195 198 205 211 215 215 214 214 210 203 203 211 207 195 191 194 196 200 207 204 203 209 204 200 198 186 184 186 180 175 173 176 175 173 171 165 165 159 148 142 133 128 127 120 117 116 113 110 105 99 95 91 87 85 83
95 339 252 204 186 81 44 233 200 150 121 130 153 178 138 112 238 192 177 220 229 205 207 216 239 234 192 173 166 175 186 192 197 199 196 194 194 193 196 202 206 209 209 209 210 212 217 221 221 219 218 217 212 209 203 196 191 192 198 204 210 209 207 210 204 205 206 190 189 192 183 179 177 180 180 180 180 178 176 166 154 149 141 137 136 129 123 120 116 112 106 101 96 92 89 88 85
87 107 293 208 189 237 276 132 175 142 141 176 179 142 137 170 218 49 222 238 237 227 237 244 250 225 185 167 173 187 190 195 200 201 199 197 199 197 197 200 204 210 213 217 220 221 222 225 226 225 225 226 223 216 210 203 195 195 201 206 213 214 210 208 206 211 213 196 191 192 183 181 180 183 183 182 185 185 177 166 158 154 148 144 143 137 131 126 121 115 109 104 98 95 93 92 89
62 126 226 158 195 279 291 106 125 136 160 174 126 152 207 205 174 299 250 245 241 233 219 225 205 173 180 183 189 192 192 199 201 200 201 201 201 199 199 201 203 208 211 215 220 224 225 226 225 224 226 227 227 224 220 216 213 209 202 205 214 219 217 211 208 212 212 203 195 194 189 182 182 188 189 184 182 183 174 162 158 157 152 149 148 142 137 132 126 119 113 107 102 100 97 96 93
98 142 187 127 338 309 19 119 95 78 228 127 164 241 283 253 176 260 258 253 221 152 91 113 142 163 193 197 196 194 196 201 199 199 201 201 202 202 202 202 206 209 212 215 219 222 224 226 225 222 221 223 226 227 225 224 228 227 214 209 214 219 223 214 205 209 213 211 201 198 196 189 189 190 191 192 188 186 178 167 161 158 154 153 151 143 140 135 129 124 118 112 107 104 102 100 98
129 123 147 109 334 309 96 135 60 322 224 165 202 261 304 323 315 252 273 329 133 136 123 219 175 196 207 203 206 202 205 204 199 197 198 201 204 206 205 206 211 213 217 222 225 229 230 231 230 227 221 218 220 223 227 228 229 232 226 223 220 218 221 213 205 211 215 207 198 195 196 197 200 194 194 203 201 190 182 175 167 161 155 153 153 145 141 137 132 128 120 115 111 108 107 105 101
84 112 151 356 345 327 32 24 330 339 215 182 176 257 305 15 262 239 270 9 117 163 204 234 211 223 220 213 221 210 216 212 203 199 199 203 206 207 208 211 214 217 223 227 233 239 238 236 235 231 224 217 214 216 223 226 225 229 226 223 224 216 214 213 208 208 205 198 196 195 196 202 204 199 199 202 198 188 180 177 174 167 158 154 155 149 144 139 134 129 122 119 115 113 111 107 105
56 75 156 317 353 357 342 344 302 317 191 185 142 296 273 205 228 242 290 47 82 176 225 240 229 238 244 232 236 225 226 216 208 210 209 210 211 210 212 215 218 222 227 230 236 241 238 236 237 234 221 211 209 208 213 216 217 222 220 219 223 216 207 206 204 199 196 195 199 203 203 207 206 202 201 194 189 185 181 179 176 169 163 159 157 152 147 142 137 130 125 123 120 118 114 111 109
5 39 85 319 358 339 311 7 338 167 172 200 132 276 258 231 243 253 330 151 123 231 242 238 234 240 242 236 238 239 232 220 217 218 217 216 216 215 216 218 221 224 228 232 234 233 231 227 231 231 208 201 201 202 205 207 211 216 221 224 220 209 197 195 194 191 193 198 208 215 210 205 201 201 199 190 184 180 178 178 175 169 164 160 157 156 152 146 141 134 131 128 124 121 117 116 113
37 22 45 13 9 282 294 338 133 157 196 28 132 245 266 262 262 268 287 194 169 233 245 234 234 236 235 237 234 240 234 225 225 224 222 219 217 218 218 219 223 225 227 231 228 219 218 212 213 213 199 197 196 199 201 200 208 216 222 218 203 194 190 191 191 192 200 208 213 210 200 194 189 191 190 185 183 178 174 174 176 171 165 162 159 158 155 148 144 140 137 133 127 124 121 119 116
37 345 308 358 160 270 304 286 168 162 345 42 146 232 276 276 273 288 300 201 194 238 252 245 239 236 234 237 233 240 243 234 233 230 226 221 217 217 216 218 222 226 226 224 212 201 204 202 204 204 199 197 194 200 199 195 206 213 207 197 188 184 184 188 191 197 204 200 196 188 180 178 176 178 180 180 181 177 173 173 175 173 168 166 163 159 156 151 147 143 141 138 132 129 125 122 120
2 63 234 258 165 279 316 312 227 237 61 20 210 238 281 282 280 318 358 179 197 247 262 259 245 240 236 236 237 238 243 241 237 232 227 221 216 214 214 216 221 225 221 208 196 195 200 198 201 202 200 199 196 200 197 194 203 201 188 183 187 183 176 183 189 186 185 178 173 172 170 169 169 173 177 178 178 176 176 177 176 174 171 169 164 160 157 154 152 146 141 141 139 135 130 126 124
316 22 231 236 194 211 303 308 307 29 78 218 232 236 258 268 274 299 307 175 192 240 255 258 251 245 236 233 239 238 234 235 234 229 224 218 214 211 210 212 218 218 208 197 194 197 201 201 202 202 202 199 198 199 195 193 194 189 180 180 191 188 177 183 182 171 170 170 169 172 172 167 165 169 173 173 173 176 177 180 179 175 172 169 163 160 158 156 155 151 144 141 142 139 134 130 126
186 172 180 247 233 209 264 281 261 87 70 227 233 246 255 266 273 273 260 178 202 241 251 258 257 249 243 237 237 237 233 235 236 226 220 217 211 208 206 206 211 208 198 196 198 200 203 205 204 201 201 199 197 198 194 188 188 189 186 183 188 187 178 179 179 171 171 175 173 175 175 168 164 166 171 171 173 178 180 181 178 173 172 169 164 161 159 158 156 154 148 143 141 139 136 132 128
156 168 154 176 215 244 238 252 259 201 142 235 231 239 250 261 269 271 261 185 216 255 261 262 257 248 243 239 239 237 233 237 237 225 218 216 210 206 204 203 205 203 198 197 198 201 203 203 203 199 198 198 195 193 190 186 186 187 183 178 180 180 176 176 178 176 175 177 176 177 176 171 168 168 170 172 176 182 181 179 175 170 172 170 166 164 163 162 160 156 151 147 142 136 133 132 130
124 131 132 172 197 266 253 252 289 232 179 248 235 239 256 259 266 272 265 191 234 261 262 260 253 243 240 239 240 235 234 240 230 217 216 214 210 206 203 201 200 198 198 199 198 201 202 202 202 198 196 196 193 191 192 190 183 175 171 173 177 178 178 178 178 178 177 177 175 176 174 169 167 168 171 175 178 182 179 177 174 170 171 171 169 167 166 165 162 157 150 147 145 138 135 134 134
96 131 162 225 205 251 256 248 307 281 183 265 267 262 262 255 261 270 269 237 243 248 250 257 252 243 239 237 241 237 234 236 201 206 208 207 206 202 200 198 196 193 195 198 200 201 202 204 205 201 198 195 191 192 191 186 180 176 174 178 180 179 179 179 176 174 174 174 172 171 169 166 166 166 171 179 181 181 178 175 173 171 171 172 170 168 167 165 162 159 153 147 147 144 141 141 140
87 119 157 250 240 268 282 301 336 348 189 268 297 284 268 256 254 262 260 247 246 243 241 251 254 252 247 238 239 236 228 224 208 202 200 201 201 197 197 196 195 195 193 194 199 201 200 201 204 203 199 194 190 190 188 183 184 188 188 184 182 178 174 174 172 170 173 173 169 168 168 169 170 166 169 181 182 180 178 174 172 173 174 174 173 169 167 166 163 162 160 155 151 147 145 148 149
146 150 171 238 246 263 282 298 323 301 186 283 304 288 272 258 250 254 254 250 257 258 250 254 257 251 252 248 235 221 221 223 218 206 196 197 197 196 197 195 194 194 193 194 196 198 197 196 200 201 197 192 190 191 191 188 189 192 188 180 178 175 171 172 171 169 172 173 170 170 170 171 173 167 169 180 181 178 176 172 171 174 176 177 178 172 167 168 166 164 165 163 158 152 150 155 159
239 200 196 214 224 218 232 285 317 324 16 6 328 294 275 251 242 250 265 290 276 262 256 261 256 247 252 261 246 221 220 221 214 206 193 191 196 198 198 195 193 193 195 196 193 195 195 194 198 200 196 192 191 192 192 192 190 184 175 168 167 168 166 169 170 168 171 174 174 173 172 172 172 170 174 181 181 178 174 171 171 174 176 178 178 173 168 168 168 168 169 168 166 162 159 161 161
281 233 207 214 219 222 240 338 4 350 326 339 11 320 285 263 237 253 286 321 276 261 253 256 257 253 245 251 249 233 225 224 214 206 195 192 197 199 198 195 194 195 197 196 194 195 195 195 198 201 199 195 192 191 191 192 189 181 173 168 164 162 162 169 175 174 174 176 177 176 173 171 171 174 180 183 181 177 173 171 174 175 175 175 173 169 167 167 169 170 172 172 173 175 170 165 159
298 253 207 208 198 200 232 251 53 281 260 282 48 11 280 277 219 239 258 264 266 276 275 261 258 258 236 237 247 238 226 224 217 208 194 193 196 194 196 197 195 196 196 194 194 195 194 196 198 199 200 199 195 192 191 191 189 185 184 183 180 177 175 177 180 180 178 179 178 177 174 170 170 178 181 179 177 175 174 172 174 175 173 171 169 167 166 168 170 171 175 177 178 181 180 172 164
246 249 157 159 165 186 200 165 182 239 276 311 38 108 275 279 243 244 250 249 271 282 275 268 262 253 243 241 246 239 228 215 208 208 196 194 196 196 198 198 197 196 193 192 193 194 195 196 196 197 200 201 198 196 194 195 196 192 188 187 186 186 185 181 180 181 180 180 179 177 174 168 170 179 180 177 177 177 176 173 172 173 170 168 168 168 167 168 171 173 176 179 182 183 188 188 176
248 210 124 135 150 159 136 124 172 323 354 305 292 128 262 274 258 308 318 237 259 266 260 264 267 263 257 253 250 243 234 218 206 205 200 197 198 200 200 197 196 195 192 193 193 194 196 196 195 195 199 202 201 200 198 198 201 197 191 188 186 186 185 180 178 180 179 178 179 177 173 167 169 179 180 180 179 178 177 174 172 171 169 167 168 169 169 170 173 176 177 181 183 180 187 197 183
202 134 101 82 79 81 84 103 112 48 320 255 210 167 235 275 232 138 38 215 239 249 251 260 270 274 266 261 262 255 242 224 214 210 203 201 201 201 199 194 193 194 193 195 194 194 194 194 193 193 197 201 201 202 202 199 198 196 194 193 190 186 182 177 176 176 176 176 177 177 173 168 171 179 181 181 180 179 178 175 173 172 170 169 170 171 170 171 174 176 176 178 179 174 173 181 178
142 115 77 60 44 42 54 49 80 56 284 261 206 188 202 272 259 174 196 214 220 231 251 269 280 279 267 261 264 258 246 224 214 216 203 199 200 197 194 192 191 191 192 194 195 194 193 192 192 191 196 201 201 201 201 199 198 197 198 198 195 190 183 177 174 174 175 176 178 177 174 172 176 181 181 181 181 180 178 176 174 173 171 170 171 172 171 171 172 172 173 173 175 175 172 175 176
115 95 90 82 360 9 27 354 45 125 257 269 264 218 206 244 255 228 245 262 241 220 239 262 269 269 266 268 270 251 240 230 210 208 194 184 187 189 191 192 189 188 189 192 194 194 192 192 192 192 195 200 201 201 199 200 200 200 200 200 198 194 186 181 178 177 177 179 180 178 175 177 182 182 182 182 181 180 178 176 175 174 173 173 173 173 172 172 171 171 173 174 176 178 177 178 177
101 104 112 105 339 346 346 315 58 227 254 267 331 307 235 244 249 252 261 265 250 222 228 246 253 259 263 267 271 260 233 225 209 201 195 185 183 186 189 189 188 187 189 191 193 193 193 194 194 193 195 198 200 200 198 199 199 199 199 199 198 194 189 185 183 180 180 181 183 181 180 184 186 184 183 182 181 180 179 177 177 176 175 175 175 174 173 173 174 174 175 177 178 179 178 179 177
172 149 142 140 138 161 271 278 267 266 269 283 334 216 246 266 260 237 240 248 248 229 231 240 246 258 263 263 269 282 258 225 215 207 200 197 195 190 189 189 188 189 190 190 192 193 193 194 195 194 194 196 199 199 198 199 198 198 199 199 199 195 190 187 184 181 182 185 189 188 188 192 191 187 184 182 181 179 179 179 179 178 176 176 176 176 175 176 177 177 177 178 178 177 176 176 174
186 159 142 156 158 168 209 219 223 260 284 294 304 224 207 222 252 232 231 252 266 245 242 253 261 262 267 276 274 269 253 230 217 215 210 206 199 193 190 191 190 190 189 191 193 195 195 196 196 195 193 195 198 199 198 199 198 198 199 200 200 197 192 188 186 185 189 193 194 192 192 195 194 189 184 181 180 179 179 179 179 179 177 177 178 177 178 178 178 178 178 177 175 173 174 174 171
209 126 119 186 186 160 176 202 182 196 313 299 244 227 219 216 263 260 245 261 266 251 258 273 266 263 279 288 268 247 241 231 216 216 217 211 200 196 194 192 193 191 190 192 194 196 196 196 197 196 196 196 198 199 199 200 200 200 200 201 200 197 191 187 187 191 196 200 199 196 195 195 192 187 183 181 181 180 180 180 179 180 179 179 179 179 178 177 178 179 177 176 174 171 172 170 166
163 135 179 214 176 127 120 232 83 67 282 272 214 248 287 306 277 262 240 250 257 261 267 254 255 266 286 279 266 249 239 229 221 220 217 209 199 198 198 195 194 193 192 193 196 198 198 197 196 196 197 197 198 199 199 200 201 200 200 201 200 195 190 190 192 196 200 202 201 199 196 193 189 185 183 182 182 181 181 181 181 181 180 180 180 179 179 178 178 180 178 177 174 170 170 169 166
127 178 206 180 110 94 108 204 5 41 252 271 248 253 284 294 275 285 149 238 253 256 254 252 262 267 253 257 261 262 252 223 220 221 211 205 200 200 200 199 198 196 195 195 197 200 200 199 198 196 196 197 198 198 199 200 201 201 201 201 199 195 192 194 198 202 204 204 202 198 194 190 187 185 185 184 183 182 182 183 184 183 181 181 181 180 180 180 180 181 179 178 174 171 171 169 167
129 190 187 128 143 193 125 163 205 189 238 277 294 283 269 223 231 246 179 213 239 247 248 252 257 243 232 248 257 263 260 226 217 214 206 202 199 201 200 200 201 199 199 198 197 200 201 201 201 198 198 199 199 199 199 200 202 203 202 201 198 196 196 199 202 205 207 206 203 197 192 189 187 186 186 185 185 185 184 185 185 185 183 182 182 182 182 182 182 182 181 179 177 175 176 172 169
54 87 147 118 153 176 164 161 174 178 213 278 314 311 269 227 202 191 198 207 212 218 227 235 241 233 218 232 251 260 251 227 221 210 207 205 197 200 200 199 200 200 199 198 197 199 201 202 201 199 200 200 199 199 200 201 203 204 204 202 199 198 200 204 206 208 209 207 203 198 192 190 188 188 188 188 187 187 187 187 187 186 185 184 184 184 185 184 184 184 183 182 180 179 182 178 172
149 164 179 195 168 124 175 145 113 135 153 213 279 283 268 244 175 178 199 206 200 195 209 223 231 238 229 224 238 252 242 227 222 212 205 201 196 198 199 200 201 199 199 197 197 199 201 201 201 199 200 200 199 200 201 202 203 204 205 204 202 202 204 206 208 209 210 207 202 198 194 191 190 190 190 190 190 189 189 189 189 189 188 187 187 187 187 187 186 186 186 186 184 184 185 184 179
181 190 194 193 173 133 157 239 249 136 152 187 180 265 272 250 162 187 197 197 200 195 208 224 224 223 234 243 243 240 240 233 222 214 205 194 191 192 193 196 197 198 198 197 197 198 199 201 201 200 200 201 201 201 202 203 204 204 205 205 205 205 206 207 209 209 210 207 202 198 195 193 192 192 192 192 192 191 191 192 191 191 190 189 190 189 190 190 190 190 190 190 189 187 187 188 187